Location: Shepherdstown, WV
(39.4326°N, 77.8042°W)
Time: 23:28:34
(UTC-04:00)

S-56A Canister/Altair - Pass Details

Date: 02 August 2021
Orbit: 632 x 2500 km, 38.9° (Epoch: 27 September)

Event Time Altitude Azimuth Distance (km) Brightness Sun altitude
Rises 22:42:53 0° 288° (WNW) 6,156 13.1 -22.6°
Reaches altitude 10° 22:48:00 10° 277° (W) 5,036 12.3 -23.3°
Maximum altitude 22:58:26 26° 230° (SW) 3,468 10.7 -24.5°
Enters shadow 23:03:58 18° 194° (SSW) 3,604 10.6 -25.1°
